Location: Ahausen
(50.4985°N, 8.2722°E)
Time: 06:19:18
(UTC+00:00)

ATLAS 3B R/B - Pass Details

Date: 18 September 2020
Orbit: 1016 x 1179 km, 63.8° (Epoch: 04 October)

Event Time Altitude Azimuth Distance (km) Brightness Sun altitude
Rises 21:21:16 0° 316° (NW) 3,829 6.7 -32.2°
Reaches altitude 10° 21:23:52 10° 314° (NW) 2,892 5.8 -32.4°
Enters shadow 21:30:03 63° 261° (W) 1,203 2.9 -33.0°
